AirNav   Air Wisconsin pilot careers
 
 1068 users online  

1A4 Logan Field Airport
Samson, Alabama, USA

GOING TO SAMSON?


FAA INFORMATION EFFECTIVE 16 AUGUST 2018

Location

FAA Identifier: 1A4
Lat/Long: 31-06-13.3300N / 086-03-45.3600W
31-06.222167N / 086-03.756000W
31.1037028 / -86.0626000
(estimated)
Elevation: 200 ft. / 61 m (estimated)
From city: 1 mile SW of SAMSON, AL
Time zone: UTC -5 (UTC -6 during Standard Time)
Zip code: 36477

Airport Operations

Airport use: Open to the public
Activation date: 12/2003
Control tower: no
ARTCC: JACKSONVILLE CENTER
FSS: ANNISTON FLIGHT SERVICE STATION
NOTAMs facility: ANB (NOTAM-D service available)
Attendance: UNATNDD
Wind indicator: yes
Segmented circle: no
Lights: ACTVT MIRL RY 05/23 - CTAF.
Beacon: white-green (lighted land airport)
Operates sunset to sunrise.

Airport Communications

CTAF: 122.9
WX AWOS-3PT at EDN (14 nm NE): 118.9 (334-347-3524)

Nearby radio navigation aids

VOR radial/distance  VOR name  Freq  Var
EDNr218/(14.2)ENTERPRISE VOR116.6003W
OZRr243/19.9CAIRNS VOR/DME111.2003W
HEYr235/(26.6)HANCHEY VOR110.6003W
RRSr249/34.2WIREGRASS VORTAC111.6002E
CEWr059/35.8CRESTVIEW VORTAC115.9003E

 
NDB name  Hdg/Dist  Freq  Var  ID
RUCKR243/14.621203WOZ --- --..
BOLL WEEVIL199/14.735203WBVG -... ...- --.
JUDD128/20.726402WJUY .--- ..- -.--
LOWE230/22.526903WLOR .-.. --- .-.
HANCHEY235/26.622103WHYE .... -.-- .

Airport Services

Airframe service: NONE
Powerplant service: NONE

Runway Information

Runway 5/23

Dimensions: 3596 x 75 ft. / 1096 x 23 m
Surface: asphalt, in fair condition
Runway edge lights: medium intensity
Runway edge markings: MARKINGS POOR DUE TO FADING
RUNWAY 5  RUNWAY 23
Latitude: 31-06.039167N31-06.405167N
Longitude: 086-04.027667W086-03.484333W
Traffic pattern: leftleft
Displaced threshold: 476 ft.181 ft.
Markings: basic, in poor conditionbasic, in poor condition
Obstructions: 81 ft. trees, 1002 ft. from runway, 190 ft. left of centerline, 8:1 slope to clear
16:1 SLOPE TO DSPLCD THLD.
8 ft. road, 252 ft. from runway, 38 ft. right of centerline, 6:1 slope to clear
15:1 SLOPE TO DSPLCD THLD.

Airport Ownership and Management from official FAA records

Ownership: Publicly-owned
Owner: CITY OF SAMSON
104 E MAIN STREET
SAMSON, AL 36477
Phone 334-898-7541
Manager: AIR HAMMER/MIKE PASCOE
395 S. MAGNOLIA ST
SAMSON, AL 36477
Phone 334-898-1303
AFTER HOURS 334-898-2700.

Airport Operational Statistics

Aircraft based on the field: 5
Single engine airplanes: 3
Multi engine airplanes: 2
    
Aircraft operations: avg 23/day *
96% transient general aviation
4% local general aviation
* for 12-month period ending 28 February 2018

Additional Remarks

RY 5/23 CLSD TO HEL WITH TAILWHEELS EXC ADJ SOD AREA.

Instrument Procedures

There are no published instrument procedures at 1A4.

Some nearby airports with instrument procedures:

33J - Geneva Municipal Airport (10 nm E)
0J4 - Florala Municipal Airport (13 nm W)
KEDN - Enterprise Municipal Airport (14 nm NE)
KOZR - Cairns Army Airfield (Fort Rucker) (21 nm NE)
79J - South Alabama Regional Airport at Bill Benton Field (21 nm NW)
 
Loc | Ops | Rwys | IFR | FBO | Links
Com | Nav | Svcs | Stats | Notes


 
Area around 1A4 (Logan Field Airport)
 
Road maps at: MapQuest Bing Google
 
Aerial photo
WARNING: Photo may not be current or correct
Aerial photo of 1A4 (Logan Field Airport)
Photo by Mike Pascoe
Photo taken 20-Feb-2012
looking northeast.

Do you have a better or more recent aerial photo of Logan Field Airport that you would like to share? If so, please send us your photo.

 
Sectional chart

 
Airport distance calculator
Flying to Logan Field Airport? Find the distance to fly.

From to 1A4

Sunrise and sunset
Times for 20-Aug-2018
 Local
(UTC-5)
 Zulu
(UTC)
Morning civil twilight05:4910:49
Sunrise06:1411:14
Sunset19:2100:21
Evening civil twilight19:4600:46

Current date and time
Zulu (UTC)  21-Aug-2018 01:03:08
Local (UTC-5)  20-Aug-2018 20:03:08
 
METAR
K0J4 
13nm W 
202358Z AUTO 21003KT 10SM CLR 26/22 A3008 RMK AO2 SLP180 60000 T02610222 10294 20256 58001
KEDN 
14nm NE 
210055Z AUTO 14003KT 10SM CLR 24/24 A3005 RMK AO2 T02410241
KSXS 
19nm NE 
210058Z AUTO 00000KT 10SM FEW010 24/24 A3005 RMK AO2 SLP174 T02410238
KOZR 
21nm NE 
210056Z AUTO 15005KT 10SM CLR 24/23 A3005 RMK AO2 SLP176 T02430232 $
K79J 
22nm NW 
202356Z AUTO 18003KT 10SM FEW090 BKN110 27/23 A3005 RMK AO2 RAB44E54 SLP170 P0000 60000 T02670228 10300 20261 58005
KLOR 
22nm NE 
202358Z AUTO 00000KT 10SM SCT160 25/24 A3006 RMK AO2 SLP160 P0000 60064 T02460242 10311 20228 55001
K54J 
23nm S 
210055Z AUTO 00000KT 10SM CLR 25/24 A3007 RMK AO2 T02450241
TAF
KOZR 
21nm NE 
210000Z 2100/2206 24006KT 9999 FEW020 SCT150 QNH3003INS BECMG 2106/2107 23006KT 8000 BR SCT005 BKN015 QNH3004INS TEMPO 2108/2111 4800 BR BKN009 BECMG 2114/2115 22006KT 9999 NSW BKN015 QNH3007INS BECMG 2117/2118 21012KT 9999 SCT030 QNH3000INS TEMPO 2121/2201 24015G25KT 4800 -TSRA BKN015CB BECMG 2202/2203 22006KT 9999 BKN009 OVC015 QNH3003INS TX30/2120Z TN22/2111Z
NOTAMs
Click for the latest NOTAMs
NOTAMs are issued by the DoD/FAA and will open in a separate window not controlled by AirNav.

 

 
 

Would you like to see your business listed on this page?

 If your business provides an interesting product or service to pilots, flight crews, aircraft, or users of the Logan Field Airport, you should consider listing it here.  To start the listing process, click on the button below
 
Add a business
 

Other Pages about Logan Field Airport

Update a link
 
Copyright © AirNav, LLC. All rights reserved. Privacy Policy  Contact